SKYSAT-C10 (42988 NORAD) Tracking and Keplerian Element Data

This shows tracking and keplerian element data for the satellite.

Feedback or suggestion? Click here.




ElementValue
Catalog42988
NameSKYSAT-C10
Epoch Orbit10761
Epoch Day282.89663972
Epoch Year2019
RAAN35.1246
Inclination97.4414
Eccentricity0.00033
Argument of Perigee178.2404
Mean Anonmoly181.8844
Mean Motion15.21831725
Decay Rate4.92E-06
L11 42988U 17068B 19282.89663972 .00000492 00000-0 24710-4 0 9998
L22 42988 97.4414 35.1246 0003300 178.2404 181.8844 15.21831725107619

Live tracking and technical data element details for SKYSAT-C10 (NORAD 42988). SKYSAT-C10 can be tracked NOW for your location showing map with azimuth and elevation plus other details from your city location.

Track the satellite on the map from your city or location and see movement details for azimuth, elevation, latitude, longitude, range, height, and movement on the map or in text.







IsCatalogInMostPopularTable: catalog: 42988, numindb: 338
Update: records affected: 1



GetName: 42988 SKYSAT-C10

Hit Count: updated at: Mon, 14 Oct 2019 01:11:30 GMT